Location: Cisewo
(53.3833°N, 14.9000°E)
Time: 11:24:00
(UTC+00:00)

SPOT 1/Viking Rocket - Pass Details

Date: 18 April 2021
Orbit: 776 x 794 km, 98.4° (Epoch: 15 May)

Event Time Altitude Azimuth Distance (km) Brightness Sun altitude
Exits shadow 19:58:13 17° 167° (SSE) 1,932 5.1 -14.9°
Maximum altitude 20:02:21 82° 255° (WSW) 811 3.6 -15.3°
Drops below altitude 10° 20:07:37 10° 343° (NNW) 2,375 7.0 -15.8°
Sets 20:09:57 0° 345° (NNW) 3,308 7.9 -16.1°
